TimeMST,TemperatureF,Dew PointF,Humidity,Sea Level PressureIn,VisibilityMPH,Wind Direction,Wind SpeedMPH,Gust SpeedMPH,PrecipitationIn,Events,Conditions,WindDirDegrees,DateUTC
12:00 AM,28.0,27.0,96,30.04,1.0,WSW,3.5,-,0.00,Snow,Light Snow,240,2014-03-05 07:00:00
12:10 AM,28.0,27.0,96,30.03,2.0,Calm,Calm,-,0.00,Snow,Light Snow,0,2014-03-05 07:10:00
12:17 AM,27.0,25.0,92,30.03,5.0,Calm,Calm,-,0.00,,Mostly Cloudy,0,2014-03-05 07:17:00
12:23 AM,26.1,25.0,96,30.04,1.8,WSW,4.6,-,0.00,,Mostly Cloudy,240,2014-03-05 07:23:00
12:34 AM,27.0,26.1,96,30.04,3.0,SW,5.8,-,0.00,,Mostly Cloudy,220,2014-03-05 07:34:00
12:49 AM,26.6,24.8,93,30.03,5.0,Calm,Calm,-,0.00,,Mostly Cloudy,0,2014-03-05 07:49:00
12:53 AM,26.1,25.0,96,30.00,2.0,Calm,Calm,-,0.00,,Mostly Cloudy,0,2014-03-05 07:53:00
12:57 AM,27.0,25.0,92,30.03,0.8,Calm,Calm,-,N/A,,Mostly Cloudy,0,2014-03-05 07:57:00
1:04 AM,27.0,26.1,96,30.03,0.2,Calm,Calm,-,N/A,Fog,Light Freezing Fog,0,2014-03-05 08:04:00
1:21 AM,25.0,24.1,96,30.04,1.0,SSW,4.6,-,N/A,,Overcast,200,2014-03-05 08:21:00
1:25 AM,25.0,24.1,96,30.04,3.0,SW,4.6,-,N/A,,Overcast,220,2014-03-05 08:25:00
1:42 AM,26.1,24.1,92,30.04,8.0,South,8.1,-,N/A,,Overcast,190,2014-03-05 08:42:00
1:53 AM,25.0,24.1,96,30.02,10.0,South,5.8,-,0.00,,Overcast,180,2014-03-05 08:53:00
2:53 AM,26.1,24.1,92,30.03,10.0,Calm,Calm,-,N/A,,Overcast,0,2014-03-05 09:53:00
3:39 AM,21.0,21.0,100,30.04,1.5,SSE,3.5,-,N/A,,Clear,160,2014-03-05 10:39:00
3:42 AM,19.0,19.0,100,30.04,0.5,South,3.5,-,N/A,Fog,Light Freezing Fog,170,2014-03-05 10:42:00
3:53 AM,19.9,18.0,92,30.10,0.8,South,3.5,-,N/A,,Clear,190,2014-03-05 10:53:00
4:02 AM,17.1,16.0,96,30.04,1.8,SSW,5.8,-,N/A,,Clear,210,2014-03-05 11:02:00
4:06 AM,18.0,17.1,96,30.04,3.0,SW,5.8,-,N/A,,Clear,220,2014-03-05 11:06:00
4:53 AM,18.0,15.1,88,30.12,10.0,SSW,8.1,-,N/A,,Partly Cloudy,200,2014-03-05 11:53:00
5:53 AM,19.0,15.1,85,30.13,10.0,WSW,9.2,-,N/A,,Clear,250,2014-03-05 12:53:00
6:53 AM,24.1,19.9,84,30.14,10.0,West,4.6,-,N/A,,Overcast,270,2014-03-05 13:53:00
7:53 AM,25.0,19.0,78,30.14,10.0,SW,6.9,-,N/A,,Clear,230,2014-03-05 14:53:00
8:53 AM,28.9,21.9,75,30.14,10.0,SW,5.8,-,N/A,,Clear,230,2014-03-05 15:53:00
9:53 AM,34.0,21.0,59,30.11,10.0,West,11.5,-,N/A,,Clear,260,2014-03-05 16:53:00
10:53 AM,36.0,23.0,59,30.09,10.0,WSW,20.7,-,N/A,,Clear,250,2014-03-05 17:53:00
11:53 AM,39.9,23.0,51,30.08,10.0,West,18.4,28.8,N/A,,Clear,260,2014-03-05 18:53:00
12:53 PM,41.0,21.0,45,30.05,10.0,WSW,20.7,26.5,N/A,,Clear,250,2014-03-05 19:53:00
1:53 PM,43.0,21.0,42,30.03,10.0,West,20.7,-,N/A,,Clear,260,2014-03-05 20:53:00
2:53 PM,43.0,19.9,40,30.02,10.0,WSW,16.1,25.3,N/A,,Clear,250,2014-03-05 21:53:00
3:53 PM,43.0,19.9,40,30.05,10.0,West,18.4,24.2,N/A,,Clear,260,2014-03-05 22:53:00
4:53 PM,39.9,23.0,51,30.08,10.0,SW,23.0,-,N/A,,Clear,230,2014-03-05 23:53:00
5:53 PM,35.1,21.0,57,30.10,10.0,SSW,19.6,-,N/A,,Clear,210,2014-03-06 00:53:00
6:53 PM,33.1,21.0,61,30.09,10.0,SSW,15.0,-,N/A,,Clear,210,2014-03-06 01:53:00
7:53 PM,33.1,19.9,59,30.10,10.0,SW,15.0,-,N/A,,Clear,220,2014-03-06 02:53:00
8:53 PM,34.0,19.0,54,30.04,10.0,SW,16.1,-,N/A,,Clear,230,2014-03-06 03:53:00
9:53 PM,36.0,18.0,48,30.02,10.0,SW,21.9,-,N/A,,Clear,220,2014-03-06 04:53:00
10:53 PM,35.1,17.1,48,29.99,10.0,SSW,16.1,23.0,N/A,,Clear,210,2014-03-06 05:53:00
11:53 PM,35.1,18.0,50,29.95,10.0,SW,23.0,28.8,N/A,,Clear,230,2014-03-06 06:53:00